Weather observations for the past three days for
Dayton, Dayton-Wright Brothers Airport
Imperial (Metric)
Date Time (edt) Wind (mph) Vis. (mi.) Weather Sky Cond. Temperature (ºF) Relative Humidity Wind Chill (°F) Heat Index (°F) Pressure Precipitation (in)
Air Dwpt 6 hour altimeter (in) sea level (mb) 1 hr 3 hr 6 hr
Max. Min.
23 20:53 S 5 10.00 Overcast FEW034 BKN070 OVC080 71.1 64 79% 29.9 1011.9
23 19:53 S 7 10.00 Partly Cloudy SCT037 SCT090 73.9 62.1 79 73.9 67% 29.9 1012.0
23 18:53 S 8 10.00 A Few Clouds FEW120 75.9 62.1 62% 78 29.89 1011.6
23 17:53 SW 7 10.00 Partly Cloudy SCT110 77 61 58% 79 29.9 1012.0
23 16:53 S 7 10.00 A Few Clouds FEW040 79 60.1 52% 80 29.91 1012.2
23 15:53 SW 7 10.00 A Few Clouds FEW041 77 59 54% 79 29.92 1012.6
23 14:53 S 8 10.00 Mostly Cloudy BKN043 BKN050 78.1 59 52% 79 29.95 1013.3
23 13:53 SE 3 10.00 Fair CLR 75.9 57.9 77 64.9 54% 78 29.96 1013.7
23 12:53 SE 9 10.00 A Few Clouds FEW110 75 59 58% 77 29.96 1013.7
23 11:53 S 5 10.00 Fair CLR 72 60.1 66% 29.98 1014.5
23 10:53 S 3 10.00 Light Rain FEW036 BKN110 69.1 61 76% 30 1015.0
23 09:53 Vrbl 3 10.00 Fair CLR 70 60.1 71% 30.01 1015.7
23 08:53 Calm 10.00 Fair CLR 69.1 60.1 73% 30 1015.2
23 07:53 Calm 6.00 Fog/Mist BKN004 BKN100 64.9 62.1 66.9 62.1 90% 29.98 1014.4
23 06:53 S 5 2.50 Fog/Mist OVC002 63 61 93% 29.97 1014.3
23 05:53 SW 3 0.25 Fog VV002 63 61 93% 29.96 1013.7
23 04:53 Calm 10.00 A Few Clouds FEW004 64 61 90% 29.96 1013.7
23 03:53 SW 6 10.00 Mostly Cloudy BKN006 64.9 62.1 90% 29.95 1013.4
23 02:53 SW 8 10.00 A Few Clouds FEW007 66 62.1 87% 29.95 1013.2
23 01:53 SW 6 10.00 Mostly Cloudy BKN009 66.9 63 80.1 66.9 87% 29.95 1013.2 0.02
23 00:53 SW 7 10.00 Fair CLR 68 63 84% 29.93 1012.7
22 23:53 SW 8 10.00 Mostly Cloudy BKN100 BKN110 69.1 61 76% 29.93 1012.8
22 22:53 SW 8 G 21 10.00 Light Rain FEW065 OVC090 72 61 68% 29.93 1012.7 0.01 0.02
22 21:53 SW 9 10.00 Mostly Cloudy FEW034 BKN100 72 64 76% 29.91 1012.1
22 20:53 W 8 10.00 Thunderstorm in Vicinity Light Rain SCT027 BKN034 OVC100 75 66.9 76% 76 29.88 1010.9 0.01
22 19:53 SW 14 G 22 10.00 Mostly Cloudy SCT042 SCT049 BKN055 80.1 66 84.9 80.1 62% 82 29.85 1009.8
22 18:53 SW 14 G 23 10.00 Fair CLR 82 64 55% 84 29.83 1009.1
22 17:53 SW 15 G 24 10.00 Fair CLR 84 61 46% 84 29.84 1009.7
22 16:53 SW 9 G 22 10.00 Mostly Cloudy BKN048 84 64.9 53% 86 29.82 1008.8
22 15:53 SW 13 G 21 10.00 Partly Cloudy FEW038 FEW047 SCT060 84 66 55% 86 29.83 1009.2
22 14:53 SW 13 G 22 10.00 Mostly Cloudy SCT034 BKN045 82 66.9 60% 85 29.86 1010.2
22 13:53 SW 15 G 23 10.00 Partly Cloudy SCT032 SCT044 81 66 81 68 61% 83 29.87 1010.5 0.01
22 12:53 SW 15 G 24 10.00 Overcast SCT027 BKN036 OVC044 78.1 64.9 64% 80 29.88 1010.8
22 11:53 S 17 G 30 10.00 Mostly Cloudy BKN025 BKN100 75.9 64.9 69% 78 29.88 1011.1
22 10:53 S 15 10.00 Overcast BKN039 OVC050 73 64 74% 29.89 1011.4 0.01
22 09:53 S 16 G 26 10.00 Mostly Cloudy BKN043 BKN120 73 64.9 76% 29.88 1011.1
22 08:53 SW 9 10.00 Thunderstorm Light Rain SCT020 SCT100 BKN120 69.1 63 81% 29.89 1011.2 0.01
22 07:53 SW 13 10.00 Light Rain FEW110 70 62.1 75 68 76% 29.88 1010.9 0.01 0.01
22 06:53 S 10 10.00 Thunderstorm FEW055 BKN100 73 60.1 64% 29.84 1009.6
22 05:53 S 9 10.00 Mostly Cloudy BKN075 72 61 68% 29.85 1009.8
22 04:53 S 7 10.00 Fair CLR 69.1 61 76% 29.85 1009.9
22 03:53 S 8 10.00 Fair CLR 72 61 68% 29.86 1010.1
22 02:53 S 8 10.00 Fair CLR 71.1 61 71% 29.86 1010.1
22 01:53 SW 8 10.00 Fair CLR 75 61 81 72 62% 77 29.88 1010.7
22 00:53 S 6 10.00 Fair CLR 72 63 73% 29.88 1011.0
21 23:53 S 9 10.00 Fair CLR 75 64 69% 77 29.86 1010.3
21 22:53 S 9 10.00 Fair CLR 75.9 64 67% 78 29.85 1009.9
21 21:53 S 8 10.00 Fair CLR 77 64 64% 79 29.85 1009.9
21 20:53 S 8 10.00 Fair CLR 79 63 58% 81 29.82 1009.0
21 19:53 S 7 10.00 A Few Clouds FEW060 81 63 88 81 54% 82 29.85 1009.9
21 18:53 S 14 10.00 Partly Cloudy SCT075 84 63 49% 85 29.86 1010.2
21 17:53 SW 10 G 20 9.00 Fair CLR 86 60.1 42% 86 29.87 1010.4
21 16:53 SW 12 G 23 10.00 Fair CLR 84 59 43% 84 29.88 1010.9
21 15:53 SW 8 G 20 10.00 Partly Cloudy FEW090 SCT110 84.9 60.1 43% 85 29.89 1011.3
21 14:53 S 12 10.00 Fair CLR 87.1 60.1 40% 87 29.9 1011.7
21 13:53 SW 9 G 21 10.00 Partly Cloudy SCT060 84.9 59 87.1 69.1 42% 85 29.92 1012.3
21 12:53 S 12 G 20 10.00 A Few Clouds FEW060 84.9 62.1 46% 85 29.91 1012.0
21 11:53 SW 8 G 17 10.00 A Few Clouds FEW050 82.9 61 48% 83 29.93 1012.6
21 10:53 SW 6 10.00 Fair CLR 81 62.1 53% 82 29.94 1012.9
21 09:53 S 6 10.00 A Few Clouds FEW065 77 62.1 60% 79 29.96 1013.5
21 08:53 SW 6 10.00 Fair CLR 73 60.1 64% 29.96 1013.7
21 07:53 Calm 10.00 Fair CLR 69.1 59 70 64.9 70% 29.94 1013.1
21 06:53 S 5 10.00 Fair CLR 64.9 57 76% 29.93 1012.8
21 05:53 S 6 10.00 Fair CLR 66.9 57 71% 29.91 1012.1
21 04:53 S 6 10.00 A Few Clouds FEW070 66.9 57 71% 29.92 1012.2
21 03:53 S 7 10.00 Fair CLR 66.9 55.9 68% 29.92 1012.1
21 02:53 S 7 10.00 Fair CLR 68 55.9 65% 29.92 1012.3
21 01:53 S 5 10.00 Fair CLR 70 55.9 81 69.1 61% 29.94 1012.8
21 00:53 S 6 10.00 Fair CLR 72 55.9 57% 29.94 1012.9
20 23:53 S 6 10.00 Fair CLR 73 57 57% 29.93 1012.7
20 22:53 S 5 10.00 Fair CLR 73.9 57.9 57% 29.94 1013.0
20 21:53 S 5 10.00 Fair CLR 75.9 57.9 54% 78 29.93 1012.6
Date Time (edt) Wind (mph) Vis. (mi.) Weather Sky Cond. Air Dwpt Max. Min. Relative Humidity Wind Chill (°F) Heat Index (°F) altimeter (in) sea level (mb) 1 hr 3 hr 6 hr
6 hour
Temperature (ºF) Pressure Precipitation (in)